Theta_e
299 297 298 296 294 293 292 293 296 297 296 295 296 295 293 293 293 292 292 292 292 295 290 287 288 286 285 286 285 285 285 283 283 283 283 283 283 284 284 284 284 284 284 284 284 284 284 284 284 283 283 282 282 282 281 281 281 281 281 281 281 281 281 281 281 281 281 280 280 280 280 280 280 280 279 279 279 279 278 278 278 278 278 279 279 279
297 296 295 293 294 293 292 293 294 295 295 294 294 295 293 292 293 292 292 292 291 295 293 285 287 287 285 286 285 285 284 283 283 283 283 283 283 284 284 284 285 284 284 283 284 284 284 284 284 283 283 283 282 282 282 281 280 281 281 281 281 281 281 281 281 281 280 280 280 280 280 280 279 279 279 279 279 279 278 278 278 278 278 278 278 278
295 295 293 292 295 294 292 294 295 294 294 293 293 295 295 292 293 292 292 292 291 295 295 287 287 289 286 285 285 285 284 284 284 284 284 284 284 284 284 285 285 285 285 284 283 284 284 284 284 283 283 283 283 283 282 281 280 280 280 280 281 281 281 280 281 280 280 280 280 280 280 280 279 279 279 279 279 279 279 278 278 278 278 278 278 278
296 296 294 292 294 294 292 293 294 294 293 292 292 294 293 290 292 293 293 294 292 294 295 289 287 288 286 286 285 285 285 284 285 285 284 284 284 284 285 285 284 285 286 286 284 283 284 284 284 283 283 283 283 282 281 280 280 280 280 280 280 280 280 281 281 280 280 280 280 280 280 279 279 279 279 279 279 279 279 279 278 278 278 278 278 278
295 294 293 292 292 293 292 292 293 295 295 293 291 292 291 290 291 291 291 293 292 291 294 292 291 291 287 286 286 285 285 284 285 285 284 284 284 284 284 284 285 285 285 286 285 284 284 284 284 284 283 283 283 282 280 280 280 280 280 280 280 280 280 281 281 280 280 280 280 279 279 279 279 279 279 279 279 279 279 279 278 278 278 278 278 277
292 291 291 291 291 291 291 292 291 292 296 296 292 290 290 290 290 291 291 291 293 293 293 292 293 294 290 287 288 286 285 285 284 285 284 284 284 284 284 284 285 285 285 285 284 284 284 284 284 284 283 283 283 282 280 280 280 280 280 280 280 280 280 281 281 280 280 279 279 279 279 279 278 278 278 278 278 278 278 278 278 278 278 278 278 277
292 289 290 291 291 291 291 292 290 292 299 297 290 289 289 290 291 292 291 292 294 294 292 289 290 293 292 291 290 287 286 285 285 285 285 285 285 284 284 284 285 285 285 284 284 283 283 284 284 284 284 283 283 282 280 280 280 280 280 280 280 280 280 280 280 280 279 279 279 278 278 278 278 278 278 278 278 278 278 278 278 278 278 278 277 277
292 290 290 290 290 291 293 293 290 293 299 294 289 288 289 290 290 291 292 293 294 292 291 289 289 290 291 292 289 287 287 286 285 286 285 285 285 285 284 284 284 285 285 285 285 283 283 284 284 284 284 283 283 282 280 280 280 279 280 279 279 279 279 279 279 279 279 278 278 278 278 278 278 278 278 278 278 278 278 278 278 278 278 278 277 277
292 292 291 290 291 291 293 292 290 291 293 291 289 288 289 289 289 290 293 296 293 291 293 292 288 289 291 291 288 287 288 288 287 287 286 286 286 285 285 284 285 285 285 284 284 284 283 284 284 284 284 283 283 281 280 279 279 279 279 279 279 279 279 278 278 278 278 278 278 278 278 277 278 278 278 278 278 278 278 277 277 277 277 277 277 277
292 293 291 291 291 291 291 291 291 290 290 290 288 287 288 288 289 290 292 296 294 293 296 292 288 289 290 292 291 289 291 291 290 288 287 287 287 286 286 285 286 285 285 284 283 283 284 284 284 284 284 283 283 281 279 279 279 279 279 279 279 278 278 278 278 278 278 278 277 277 277 277 277 277 277 277 278 278 277 277 277 277 277 277 277 277
293 293 293 292 291 291 290 290 291 290 289 289 288 289 289 288 291 291 292 295 295 296 295 290 288 289 289 292 294 293 296 297 294 291 289 288 287 286 286 286 286 286 286 285 283 283 284 284 284 284 283 283 282 280 279 279 279 279 279 278 278 278 278 278 277 277 277 277 277 276 276 276 276 276 276 276 277 277 276 276 276 276 276 276 276 276
292 293 292 293 293 291 289 290 289 288 288 289 289 290 290 290 292 293 295 295 294 295 293 288 288 288 288 292 294 293 293 293 294 294 293 291 288 286 286 286 285 286 286 286 284 283 283 284 284 283 283 283 282 280 279 279 279 278 278 278 278 278 278 277 277 277 277 277 276 276 276 276 276 276 276 276 276 275 275 275 275 275 275 275 275 276
292 291 290 291 292 290 290 290 289 288 289 290 291 293 295 296 294 295 298 295 293 294 290 287 289 288 288 291 291 291 291 290 291 292 293 293 290 288 286 285 285 285 286 286 285 283 282 282 283 283 283 283 281 280 279 279 278 278 278 278 277 277 277 277 277 277 276 276 276 276 276 276 276 275 275 275 275 275 275 274 275 274 275 275 275 275
294 291 290 290 290 289 290 290 289 289 289 290 291 292 295 297 294 295 296 292 292 292 286 285 288 289 290 292 291 291 290 290 290 289 290 291 290 289 287 285 285 285 285 285 284 283 282 282 282 282 283 283 281 279 279 279 278 278 278 278 277 277 277 277 276 276 276 276 276 276 276 275 275 275 275 275 275 274 274 274 274 274 274 274 274 275
295 293 291 289 289 290 290 289 289 289 289 289 288 288 293 297 294 293 296 294 293 292 287 285 288 292 295 294 292 292 290 288 288 288 287 288 288 287 286 285 285 285 284 284 284 283 282 282 282 282 282 282 280 279 279 279 278 278 278 278 277 277 276 276 276 276 275 275 276 276 276 275 275 275 275 274 274 274 274 274 274 274 274 274 274 274
291 293 290 288 288 289 289 289 289 289 288 287 286 289 292 293 293 293 291 290 290 290 290 289 290 292 293 292 290 289 289 288 288 288 287 287 287 285 285 285 285 285 284 284 284 283 282 282 282 282 282 282 280 279 279 279 278 278 278 277 277 276 276 276 275 275 275 275 275 276 276 275 275 275 274 274 274 274 274 274 273 273 273 274 274 274
291 291 289 288 289 288 288 288 287 288 288 288 288 290 288 286 292 294 289 286 286 289 291 290 290 291 290 291 290 287 290 290 288 288 287 287 286 285 285 285 285 285 284 284 284 282 281 281 281 281 282 281 280 279 279 278 278 278 277 277 276 276 276 276 275 275 275 275 275 275 275 275 275 274 274 274 273 273 273 273 273 273 273 273 273 273
293 292 289 288 289 288 287 287 286 286 287 288 289 289 287 285 289 292 291 289 288 289 290 288 289 290 289 292 293 290 292 293 291 289 287 286 285 285 285 285 285 285 284 283 283 281 280 280 280 281 281 281 280 279 279 278 278 278 277 277 276 276 276 275 275 275 275 275 275 275 275 275 274 274 273 273 273 273 273 273 273 273 273 273 273 273
293 294 290 287 288 288 288 288 288 286 285 287 289 287 287 288 290 290 290 291 289 289 291 290 287 287 288 291 294 294 295 296 295 292 288 287 286 285 285 285 285 285 284 283 282 281 280 280 280 281 281 280 280 279 279 278 278 277 277 276 276 276 275 275 275 275 275 275 275 275 274 274 274 273 273 273 272 272 272 272 272 272 272 272 272 272
293 295 291 287 286 288 289 289 290 289 286 287 288 287 289 290 291 290 288 289 290 289 291 291 289 289 291 293 295 296 296 297 294 291 290 289 287 286 286 286 285 285 284 283 282 281 280 280 280 280 280 280 279 279 279 278 278 277 277 276 276 275 275 275 275 274 274 274 275 274 274 274 273 273 272 272 272 272 272 272 272 272 272 272 272 272
292 291 292 290 285 287 290 290 290 290 289 289 289 289 291 289 287 288 287 287 290 291 290 291 291 290 291 292 294 294 294 293 292 290 289 288 286 286 285 285 285 285 284 282 282 281 280 280 280 280 280 280 279 279 278 278 277 277 276 276 275 275 275 274 274 274 274 274 274 274 274 273 272 272 272 272 272 272 272 271 271 271 271 271 271 271
292 290 295 294 288 289 290 287 286 286 288 291 291 291 292 290 288 288 288 286 286 288 289 289 289 290 290 292 292 291 290 290 290 289 289 287 286 286 285 285 285 284 283 282 282 281 280 279 279 279 280 279 278 278 278 277 277 276 276 276 275 275 275 274 274 274 274 274 274 274 273 272 272 272 271 271 271 271 271 271 270 270 271 271 270 270
293 292 294 294 290 288 286 284 284 285 286 288 289 288 289 290 290 291 291 289 286 285 285 285 287 289 289 292 291 290 290 290 289 288 288 286 285 284 284 284 284 283 282 282 281 280 280 279 279 279 279 278 278 278 277 277 277 276 276 276 275 275 274 274 274 274 274 274 273 273 272 272 271 271 271 271 271 271 270 270 270 270 270 270 269 269
293 292 292 293 292 288 284 284 285 285 286 287 288 286 286 288 290 291 291 289 288 287 285 285 287 288 290 294 292 290 289 289 288 287 286 285 284 284 284 283 283 282 282 281 281 280 279 279 278 278 277 277 277 277 277 277 276 276 276 275 275 275 274 274 274 274 274 273 273 272 271 271 271 271 271 271 270 270 269 269 269 269 269 269 268 268
292 292 291 293 295 292 290 290 289 288 286 287 289 287 286 287 287 286 285 284 287 288 286 286 287 287 289 293 292 290 288 288 287 285 284 285 284 284 283 283 282 282 281 281 280 279 278 278 277 277 277 277 277 277 277 277 276 276 276 275 275 275 274 274 273 273 273 272 272 271 271 271 271 270 270 270 269 269 269 268 268 268 268 268 268 268
290 291 291 292 292 292 293 295 296 294 287 285 288 288 287 287 286 286 287 286 287 286 285 286 288 287 289 292 291 289 289 288 287 285 284 284 284 284 283 283 282 281 280 280 280 279 278 277 277 277 277 277 277 277 276 276 276 276 275 275 275 274 274 273 273 273 272 272 271 271 271 271 270 270 270 269 269 268 268 268 268 268 268 267 267 267
291 289 289 291 291 291 292 291 292 292 288 286 288 288 286 285 285 286 288 287 287 285 284 286 287 287 288 289 288 288 288 287 286 285 285 284 284 283 283 282 282 281 280 280 279 279 278 277 277 276 276 277 276 276 276 276 276 275 275 275 274 274 273 273 273 272 272 271 271 271 270 270 270 270 269 268 268 268 267 267 267 267 267 266 266 266
291 289 289 289 289 289 289 288 287 287 286 287 288 288 286 284 284 285 286 287 287 286 286 287 287 287 287 287 287 287 287 287 286 285 285 284 283 283 282 282 282 281 280 279 279 278 278 277 277 276 276 276 276 276 276 276 275 275 275 275 274 274 273 273 273 272 271 271 270 270 270 270 270 269 268 268 267 267 267 267 267 266 266 266 266 266
292 291 289 288 288 288 287 286 286 285 285 285 286 287 286 284 283 285 285 285 285 286 287 288 288 288 287 287 288 287 287 287 286 285 285 284 283 283 282 282 281 280 280 279 278 278 277 277 276 276 276 276 276 276 275 275 275 275 275 274 274 273 273 272 272 271 271 270 270 270 270 269 269 268 268 267 266 266 266 266 266 265 265 266 266 266
292 293 290 287 288 288 288 287 285 285 285 285 285 285 285 284 284 284 285 285 285 285 286 287 287 286 287 287 287 287 287 286 285 285 284 284 283 283 282 281 281 280 279 278 278 277 277 276 276 275 275 275 275 275 275 275 275 275 274 274 273 273 272 272 271 270 270 270 270 270 269 269 268 267 267 266 266 266 266 265 265 265 265 266 266 266
289 293 290 287 289 289 288 287 285 284 285 285 286 285 284 284 284 283 284 284 284 284 285 285 285 285 285 286 286 285 285 284 284 284 283 283 283 282 282 281 280 280 279 278 278 277 277 276 275 275 275 275 275 275 274 275 275 274 274 273 272 272 272 271 270 270 269 269 269 269 268 268 267 266 266 266 266 265 265 265 265 265 265 266 266 266
288 289 288 287 291 291 287 285 285 285 284 286 287 287 285 285 285 284 284 284 284 285 285 284 284 285 285 285 285 285 285 284 284 283 283 282 282 282 282 281 280 280 279 279 278 277 277 276 276 275 274 274 274 274 274 275 274 273 273 272 272 272 271 270 269 269 269 269 269 268 267 267 266 266 266 266 265 265 264 264 264 265 265 265 265 265
287 290 291 288 290 291 286 284 285 285 286 289 290 290 289 288 287 286 285 284 283 284 284 285 285 286 287 286 285 286 285 285 284 284 283 283 282 282 282 281 281 280 279 279 278 278 277 277 276 275 275 275 275 275 275 274 273 273 272 272 272 271 270 269 269 269 269 268 268 267 267 266 266 265 265 265 265 264 264 264 264 265 265 264 264 264
284 290 291 286 288 293 288 285 286 287 289 290 290 290 290 289 289 289 288 287 284 283 285 286 286 287 287 286 286 286 285 285 285 284 283 283 283 283 282 281 281 280 279 278 278 277 277 276 275 275 275 275 275 275 274 273 273 272 272 271 271 270 269 269 268 268 268 268 267 266 266 265 265 265 265 264 264 264 264 264 264 264 264 264 263 263
285 288 287 284 288 292 289 287 289 290 290 290 288 287 287 287 287 287 288 287 284 283 284 285 285 286 286 285 285 285 285 285 284 283 282 282 282 282 282 281 280 280 279 278 278 277 276 275 275 274 275 275 275 274 273 272 272 272 271 271 270 269 269 268 268 268 267 267 266 266 265 265 265 265 264 264 264 264 263 264 264 264 263 263 263 263
289 288 287 286 287 289 290 291 292 290 290 289 289 289 286 285 285 285 287 288 286 285 284 284 284 285 284 285 284 284 284 283 282 281 281 281 281 281 281 281 280 280 279 278 278 277 276 275 275 275 275 274 273 273 272 272 271 271 270 270 269 268 268 267 267 267 266 266 265 265 265 264 264 264 264 264 264 263 263 264 264 263 263 262 262 262
288 289 288 288 287 288 290 291 289 288 289 290 290 289 285 286 288 287 287 288 288 288 287 285 285 285 284 284 284 283 282 281 281 282 282 281 281 280 280 280 280 279 278 278 277 276 276 276 275 274 274 273 272 272 271 271 271 270 269 269 268 268 267 267 266 266 266 265 265 264 264 264 264 264 264 264 263 263 263 263 263 263 262 262 261 261
285 288 289 288 289 288 287 288 289 289 290 291 291 286 283 285 287 287 286 286 288 290 289 287 286 286 285 284 284 283 282 282 283 284 284 284 282 280 279 279 278 278 277 276 276 276 275 275 274 273 273 272 271 271 271 270 270 269 268 268 267 267 266 266 266 265 265 264 264 263 263 263 263 263 263 263 263 263 263 263 262 262 262 261 261 260
284 287 288 287 289 288 287 289 290 290 291 291 289 285 283 283 283 285 286 287 289 291 290 288 287 286 286 285 284 283 282 282 284 285 285 285 283 280 279 279 277 277 276 276 276 275 275 274 273 273 272 271 271 270 270 270 269 268 268 267 267 266 266 266 265 265 264 264 263 263 263 263 263 263 263 263 263 263 263 262 262 262 261 261 260 260
285 287 287 287 288 288 287 288 289 288 289 289 288 285 282 280 282 285 287 288 290 290 290 289 288 287 286 285 284 283 283 283 285 285 285 285 282 280 279 278 277 276 275 276 276 275 275 273 272 272 271 270 270 270 270 269 268 268 267 266 266 266 265 265 265 264 264 263 263 262 262 262 262 262 262 262 262 262 262 262 261 261 261 260 259 259
285 285 285 286 288 287 286 288 288 287 288 289 288 286 282 281 283 286 288 289 289 289 289 288 288 287 286 285 284 284 284 284 285 285 284 282 281 279 278 277 277 276 275 275 275 275 274 273 272 271 270 270 270 270 269 269 268 267 266 266 266 265 265 265 264 264 263 262 262 262 262 262 262 262 262 262 262 262 262 261 261 261 260 259 259 259
288 287 285 285 286 285 285 286 286 287 288 287 285 283 281 283 286 288 290 291 289 288 287 287 286 286 285 285 285 284 284 284 283 283 282 281 280 280 278 277 276 276 275 274 274 274 273 272 271 270 270 270 270 269 269 268 267 266 266 265 265 265 265 264 264 263 263 262 262 262 262 262 262 262 262 261 261 261 261 261 261 260 259 259 258 258
289 291 291 288 286 285 284 284 287 289 288 284 284 284 282 285 289 289 290 290 288 287 287 286 285 285 284 284 284 283 283 283 283 282 282 281 280 279 278 277 276 275 274 273 273 273 272 271 270 270 270 270 269 269 268 267 266 266 265 265 265 265 264 264 263 263 262 262 262 262 262 261 261 261 261 261 261 261 261 260 260 259 259 258 258 258
288 290 293 290 287 287 288 290 292 292 288 284 285 288 287 287 289 288 287 287 286 286 286 285 285 285 284 284 284 283 283 283 282 282 282 281 280 278 277 276 275 274 274 273 273 273 271 270 270 269 269 269 269 268 268 267 266 265 265 264 264 264 264 263 263 262 262 261 261 261 261 261 261 261 261 260 260 260 260 260 259 259 258 258 257 257
290 291 292 289 288 289 289 290 291 290 288 285 284 286 287 287 287 286 285 285 285 285 285 285 285 285 285 284 284 283 283 283 282 282 281 280 279 278 277 275 274 274 273 273 272 272 271 270 269 269 269 269 268 268 267 266 265 265 264 264 264 263 263 263 262 262 261 261 261 261 261 261 261 261 260 260 260 260 259 259 259 258 258 257 257 257
289 288 288 287 289 289 287 287 288 287 287 287 285 285 285 285 285 285 284 284 284 285 285 285 285 285 284 284 283 283 283 282 282 281 280 279 278 277 276 275 274 273 273 272 271 271 270 269 269 268 268 268 268 267 267 266 265 264 264 264 263 263 263 262 262 262 261 261 261 261 261 260 260 260 260 260 260 259 259 258 258 257 257 257 256 257
288 285 285 287 288 288 287 287 288 287 287 287 286 286 286 285 286 285 285 284 284 284 284 284 284 284 283 283 282 282 282 281 281 280 279 278 277 276 275 274 274 273 272 272 271 270 269 269 268 268 267 267 267 267 266 265 265 264 263 263 263 262 262 262 262 261 261 260 260 260 260 260 260 260 260 260 260 259 258 258 258 257 257 257 256 256
287 284 286 288 287 287 287 287 287 287 287 287 287 287 287 287 287 286 285 285 284 284 284 283 283 283 282 282 281 281 280 280 279 279 278 277 277 276 275 274 273 273 272 271 270 269 269 268 267 267 266 266 266 266 265 264 264 263 263 263 262 262 262 261 261 261 260 260 260 260 260 260 259 259 259 259 259 259 258 258 257 257 256 256 256 256
286 286 288 289 287 287 287 287 287 287 287 287 287 287 287 286 286 286 285 285 284 284 283 282 281 281 281 280 280 280 279 279 278 278 277 276 276 275 274 274 273 272 271 270 269 269 268 268 267 267 266 266 266 265 264 264 263 263 262 262 262 262 261 261 260 260 260 260 260 259 259 259 259 259 259 259 259 259 258 258 257 256 256 256 256 256
286 289 290 289 287 287 287 287 288 287 287 287 287 286 286 286 286 285 285 284 283 282 281 280 280 280 280 279 279 278 278 278 277 277 276 276 275 274 274 273 272 271 270 269 269 268 268 267 267 266 265 265 265 264 264 263 263 262 262 262 261 261 260 260 260 259 259 259 259 259 258 258 258 259 259 259 258 258 258 258 257 256 256 256 256 256
287 290 290 288 287 288 287 287 287 287 286 286 286 285 285 285 284 283 283 282 281 280 280 279 279 279 279 278 278 277 277 277 276 276 275 275 274 274 273 273 271 270 269 269 268 268 267 267 266 266 265 264 264 263 263 263 262 262 261 261 261 260 260 260 259 258 258 258 258 258 258 258 258 258 258 258 258 258 257 257 257 256 256 256 256 256
Wind_Speed
3 6 5 2 1 3 3 2 2 4 5 6 4 3 3 1 3 4 2 1 2 4 3 1 2 4 5 5 5 4 3 3 4 5 4 4 3 3 3 4 4 3 5 8 8 7 8 9 10 11 12 14 16 17 20 23 26 27 27 28 29 29 29 28 27 27 27 28 29 30 30 30 30 31 32 33 32 31 32 33 35 36 37 38 39 41
5 7 2 2 3 2 3 0 3 5 5 5 4 4 2 0 3 4 1 1 1 2 1 3 2 4 6 6 5 4 4 5 5 5 5 4 4 4 3 5 4 3 6 9 9 8 8 9 10 11 12 14 16 17 19 22 25 26 26 27 27 27 28 26 24 23 23 23 23 25 26 26 26 27 28 30 30 29 29 31 32 33 35 36 37 38
6 4 1 3 3 1 5 4 5 6 5 4 3 4 1 1 2 4 4 3 3 2 2 5 4 5 6 6 5 5 5 5 5 5 5 4 4 4 4 4 4 4 5 6 8 10 10 10 10 11 12 13 15 17 17 19 23 24 25 25 26 26 27 25 22 20 20 20 20 20 22 23 23 24 23 25 27 27 28 29 29 30 32 33 35 35
4 0 2 2 3 4 6 6 6 5 3 2 3 3 1 1 1 2 4 4 3 1 2 6 5 3 4 4 6 6 5 4 5 6 5 5 5 5 5 4 4 5 4 4 6 10 12 12 11 11 12 12 14 16 16 18 21 23 23 24 25 25 26 25 21 18 17 18 19 19 20 21 21 22 22 23 24 25 26 28 28 28 29 30 31 33
5 1 1 4 5 5 4 3 4 3 1 1 2 4 2 2 2 4 4 4 2 1 2 4 1 3 4 5 7 5 4 6 5 5 6 6 6 6 5 5 5 5 5 4 5 9 13 13 12 12 12 12 14 14 15 17 20 21 22 23 24 24 24 23 20 16 16 18 20 21 21 22 22 23 23 24 25 25 25 27 27 27 27 27 28 29
4 1 1 4 5 3 4 2 1 2 1 2 2 4 3 4 5 5 3 2 2 1 1 2 2 3 3 6 8 4 4 8 6 6 8 7 6 6 5 6 5 5 5 6 7 10 14 15 14 13 11 12 13 12 13 16 18 19 20 21 22 22 22 21 18 15 15 18 21 22 22 23 23 23 24 24 25 26 25 25 26 26 25 26 26 27
2 3 3 4 3 3 3 2 1 2 3 2 1 4 3 4 4 3 2 1 2 1 1 2 1 3 2 4 7 6 7 9 7 8 9 7 6 6 5 6 5 5 5 6 9 12 14 14 14 13 12 13 13 11 12 15 17 18 18 19 19 20 19 18 17 15 16 18 19 20 20 21 22 22 24 24 24 26 26 24 24 25 25 24 24 24
2 3 5 4 3 2 3 2 1 3 5 1 0 5 2 2 3 3 2 2 0 1 1 3 2 2 4 4 3 3 6 8 9 10 10 8 8 7 7 6 6 6 5 4 5 10 14 15 15 15 13 13 12 9 11 14 16 16 16 17 17 18 17 17 16 16 17 18 18 19 19 20 21 22 23 24 23 23 24 24 23 24 24 23 23 23
1 2 2 3 2 1 1 2 3 3 3 4 1 5 2 1 3 3 3 2 1 1 1 3 2 0 5 3 1 2 4 8 10 12 11 10 10 9 8 7 6 6 6 6 6 10 15 16 16 16 15 14 11 8 10 13 14 14 15 15 16 17 16 16 16 16 16 17 18 19 19 20 21 22 22 23 23 22 22 22 22 22 21 21 22 21
1 1 2 4 2 1 2 3 2 3 0 4 3 5 3 4 3 2 4 2 2 3 2 4 1 1 4 4 1 1 3 7 9 9 9 10 9 9 8 7 7 6 5 7 10 14 17 17 18 17 16 15 10 7 10 13 14 14 15 15 16 16 16 15 15 15 15 16 18 19 19 20 21 21 21 21 21 21 21 21 21 21 20 20 20 20
1 1 2 4 1 2 2 2 1 2 2 2 5 4 4 4 3 3 2 3 4 2 4 3 1 2 2 5 3 3 5 6 6 5 5 7 7 8 7 6 6 5 4 5 8 14 16 17 18 16 16 15 10 7 10 13 13 13 14 14 15 16 16 15 15 15 15 16 17 18 19 19 19 19 20 20 20 20 19 19 20 21 21 20 19 19
3 3 1 0 2 0 1 1 1 0 2 2 4 3 2 2 3 4 4 4 4 3 4 3 0 2 2 6 4 5 7 6 5 5 6 7 8 8 8 7 6 5 5 4 5 9 13 15 17 16 16 15 10 9 10 12 13 12 12 13 14 15 15 14 15 15 16 17 18 18 18 18 18 18 18 18 18 18 18 18 19 20 21 21 20 20
1 0 2 3 2 2 2 1 1 3 4 4 4 4 3 2 4 3 3 2 1 4 2 3 2 1 5 8 7 8 9 8 8 7 7 7 8 8 8 8 7 5 5 5 4 5 10 13 15 17 17 14 11 10 10 12 12 12 13 14 14 15 14 13 14 15 17 19 19 18 18 17 17 17 17 16 17 16 17 18 18 19 19 19 20 20
2 3 3 1 1 1 4 3 1 2 3 4 2 3 3 2 3 2 3 2 3 4 1 1 2 3 5 7 8 10 9 7 8 8 7 7 8 8 9 8 7 7 6 5 4 5 9 13 16 17 17 15 12 11 10 12 14 13 14 15 15 16 14 13 13 15 18 20 20 19 18 17 17 16 16 16 16 16 18 19 18 18 18 18 18 19
0 4 2 1 1 2 3 2 3 3 2 2 2 4 2 4 3 2 3 2 4 4 2 1 1 3 3 3 5 6 5 3 4 6 5 6 7 6 5 5 7 8 7 6 6 7 11 16 17 17 17 15 13 12 11 13 15 15 15 15 15 16 14 13 14 16 19 20 20 19 18 18 17 17 16 16 16 17 19 19 19 20 19 17 17 17
3 4 3 1 2 3 2 1 3 5 2 1 1 3 1 3 4 2 3 4 1 3 3 2 3 5 4 6 5 1 4 5 4 4 4 6 7 4 4 6 8 8 8 7 6 7 13 18 18 18 17 16 14 13 14 14 15 15 15 15 15 15 15 15 16 18 20 21 21 20 20 19 18 18 17 17 17 18 19 19 20 20 19 17 17 17
1 3 2 1 3 3 1 1 2 2 1 0 1 1 2 3 4 4 1 1 4 1 3 2 4 5 4 7 4 1 4 6 4 5 5 8 7 5 6 8 9 9 9 8 7 7 13 17 17 17 18 16 15 15 16 16 15 15 15 14 14 14 15 17 18 20 22 22 21 21 20 20 19 18 18 19 20 21 20 20 20 20 19 19 19 19
2 2 2 1 1 1 1 2 3 2 2 2 1 2 2 2 3 4 0 3 4 1 4 2 5 4 3 5 4 2 5 7 6 7 7 7 7 7 9 10 10 11 9 8 8 9 14 17 17 18 18 18 17 17 17 17 16 15 15 14 13 14 15 17 20 21 23 24 22 20 19 20 20 19 20 21 23 23 22 20 20 19 19 20 21 21
3 1 4 0 2 4 2 3 2 3 3 3 2 3 4 2 0 1 1 0 1 2 4 5 5 4 4 5 5 4 7 8 9 8 7 9 9 9 11 11 12 11 8 6 6 6 12 15 17 18 19 18 18 18 19 18 16 15 15 14 13 14 15 17 19 21 23 24 22 20 20 19 20 21 23 24 25 25 23 21 20 20 20 22 22 21
3 2 3 2 0 3 3 1 2 1 3 3 2 2 2 2 3 2 1 2 2 2 3 5 6 5 7 7 6 9 10 9 8 7 7 10 10 10 10 10 10 9 7 7 5 5 9 14 17 18 19 18 18 19 20 18 17 16 15 15 15 15 16 17 19 21 22 22 21 21 21 21 22 23 24 25 25 23 22 21 21 22 22 22 20 20
2 2 3 4 3 1 1 2 4 5 4 2 2 0 1 1 2 1 1 2 3 2 3 2 6 9 7 5 8 12 10 9 9 8 9 9 10 10 10 9 9 7 6 6 5 5 9 14 17 19 19 18 19 19 20 19 18 16 16 16 16 16 17 19 20 21 21 20 19 20 22 23 25 25 25 24 23 22 23 23 23 23 22 21 20 21
1 2 3 2 2 3 4 3 3 5 5 5 4 4 3 3 3 1 3 1 2 3 4 4 5 13 9 4 8 11 9 9 9 9 9 9 10 10 9 9 9 7 6 6 5 5 9 14 17 18 18 18 19 20 19 19 18 17 18 17 17 17 18 20 21 21 21 19 19 21 23 24 25 26 25 24 23 24 24 23 23 24 23 22 23 24
3 3 2 3 4 4 5 4 2 2 3 4 3 3 4 4 5 5 3 3 1 2 2 4 2 13 10 5 7 8 8 8 8 8 9 9 8 9 8 9 7 6 7 6 5 7 11 15 17 17 18 18 18 19 20 20 19 19 20 18 17 18 19 21 22 21 20 19 21 22 23 24 25 25 25 25 24 25 24 25 25 25 24 24 25 26
2 3 1 3 4 2 4 4 3 3 4 3 1 2 4 3 3 5 5 3 2 3 3 3 3 13 9 2 4 6 5 7 6 7 9 8 6 7 7 7 6 6 7 6 5 8 12 15 15 16 17 17 18 19 20 21 21 20 20 18 18 20 21 22 21 21 21 22 24 24 23 23 24 24 25 25 25 25 25 26 26 25 25 25 26 26
1 1 2 2 6 6 5 5 5 4 0 2 3 2 3 4 6 4 2 3 1 6 8 5 5 13 8 0 2 5 4 7 7 7 8 8 6 6 5 6 6 6 6 6 6 6 9 12 13 15 16 17 18 20 21 22 22 22 21 19 19 21 22 22 21 22 23 24 24 24 23 23 24 24 24 25 26 26 27 27 27 26 25 25 25 24
2 2 3 2 3 5 5 5 3 2 2 2 2 4 5 6 9 5 2 3 4 5 7 6 8 15 12 6 6 7 5 8 10 7 6 7 7 7 6 6 6 6 7 8 7 6 7 10 12 15 16 17 19 20 22 23 23 23 21 20 20 21 22 22 22 23 24 24 24 24 24 24 24 24 24 25 27 28 28 28 27 25 24 24 24 23
3 1 3 6 7 8 8 7 3 3 3 3 4 6 8 8 8 6 4 4 6 3 3 10 15 17 20 19 18 15 10 10 12 9 7 8 8 7 7 7 7 6 7 8 7 7 8 8 11 14 17 18 20 22 23 24 24 23 21 21 21 22 22 23 23 24 24 23 24 24 24 25 25 24 24 26 27 29 29 27 24 23 25 26 25 25
5 2 5 7 10 11 10 8 2 1 3 5 6 8 9 10 9 9 10 10 5 4 8 19 18 15 20 22 21 20 17 12 11 9 8 9 8 7 7 8 8 7 7 8 7 8 9 8 8 13 17 19 21 23 24 25 25 23 21 21 22 22 22 24 25 24 23 22 23 24 25 25 25 25 26 27 29 29 26 23 22 25 27 27 26 24
5 4 4 5 9 10 10 10 5 4 6 5 7 11 11 12 13 17 21 15 8 6 17 21 19 17 19 20 20 21 19 14 11 9 7 8 9 8 7 8 9 9 8 9 9 9 10 8 7 12 18 20 21 23 24 24 23 22 21 22 22 22 23 24 25 23 22 22 23 24 24 25 25 26 28 29 28 25 21 21 24 27 27 26 24 21
4 4 2 2 6 9 10 11 6 4 4 3 9 16 13 13 17 20 22 18 13 16 23 23 23 23 20 22 23 21 18 13 11 11 9 10 11 10 9 8 9 10 9 10 10 9 9 9 10 14 17 18 20 22 23 23 22 21 21 22 22 23 24 25 23 21 20 21 23 24 24 25 26 27 29 28 24 19 20 24 27 28 27 25 20 17
1 2 1 3 4 8 5 4 3 1 3 4 11 18 13 12 16 18 19 16 12 17 25 24 22 20 21 23 21 17 15 12 11 12 11 11 11 9 9 9 9 11 10 10 10 9 9 9 10 13 15 17 20 21 22 22 21 21 21 21 21 24 25 23 20 18 19 21 23 23 24 25 26 27 27 25 20 19 22 25 27 27 24 19 17 17
2 2 1 5 3 7 1 4 4 2 3 7 15 21 17 12 12 13 14 13 13 17 21 17 13 15 19 16 11 11 12 11 11 12 10 10 9 8 10 11 10 10 10 10 9 9 9 9 9 11 15 18 20 21 21 21 20 19 19 20 22 24 22 19 17 18 20 22 23 23 24 25 25 25 24 21 20 22 24 25 26 24 19 16 17 20
4 3 1 3 1 7 3 3 4 3 5 10 11 12 13 11 10 10 11 13 14 14 11 10 12 16 14 7 7 12 13 12 12 10 8 9 8 8 9 11 10 10 10 10 10 9 9 9 10 13 16 18 19 19 19 19 18 18 19 21 23 21 18 16 17 19 21 22 23 23 23 23 23 22 20 19 21 24 25 24 23 20 17 17 20 22
4 5 2 2 2 6 6 5 6 7 9 9 4 3 5 6 8 10 14 14 12 12 10 12 14 16 13 10 12 15 15 15 14 10 6 6 6 7 9 10 10 10 10 10 10 9 9 10 13 15 16 17 17 17 17 17 17 19 21 22 21 17 15 16 19 20 22 23 22 22 22 22 21 20 19 20 22 24 24 23 20 17 17 20 23 24
5 5 2 2 2 4 5 6 7 9 7 5 4 2 4 6 6 7 14 18 11 13 16 18 18 19 18 16 16 16 16 17 14 10 8 6 6 8 10 10 10 11 11 10 9 8 9 12 13 14 15 16 16 15 15 16 17 20 21 20 18 16 16 18 20 21 22 22 21 21 21 21 21 20 20 21 22 23 23 20 17 16 19 22 24 26
7 5 2 2 2 3 3 2 2 10 12 11 10 6 1 2 2 1 11 18 12 11 15 18 19 21 20 18 17 15 13 11 10 9 8 9 9 10 11 11 11 11 11 10 9 9 12 14 15 14 15 14 13 13 14 16 18 19 18 17 16 16 18 19 20 21 20 20 20 20 21 21 21 21 21 22 22 22 21 18 17 19 21 23 25 26
7 5 2 1 2 2 2 4 5 10 16 14 8 3 2 1 2 3 4 15 11 7 10 13 17 19 18 17 17 12 5 5 9 10 7 10 12 12 12 13 13 11 10 10 12 13 14 14 14 13 13 12 12 13 15 17 17 16 15 15 16 18 19 19 20 20 19 19 20 21 21 20 19 20 21 22 22 22 20 18 18 21 23 23 24 24
4 3 4 4 2 1 1 4 5 6 11 8 2 2 3 3 5 6 1 13 14 7 9 12 15 16 15 15 12 5 3 3 10 10 5 9 12 11 11 12 12 12 10 10 12 12 12 13 13 12 11 11 12 14 15 15 15 14 14 17 18 19 19 19 19 18 18 20 21 22 21 20 19 20 21 21 22 21 20 18 19 22 23 23 24 22
3 2 4 4 3 0 3 3 3 5 10 7 2 4 4 3 3 2 4 12 11 7 7 10 12 13 13 13 8 1 2 5 10 9 5 7 9 8 9 9 8 11 13 13 13 13 13 13 12 11 11 12 13 14 13 13 13 14 16 18 19 18 18 19 19 18 19 20 22 22 21 20 20 20 20 21 21 20 19 19 20 22 23 24 23 22
3 3 3 3 6 3 4 3 3 6 9 6 3 4 3 2 1 2 8 12 8 7 5 6 9 12 11 10 5 3 4 9 11 11 6 3 5 6 7 7 7 9 12 13 13 13 13 12 12 12 12 13 13 13 12 12 13 14 17 19 19 18 19 20 19 18 18 20 21 22 21 19 19 19 19 20 19 18 18 19 20 22 23 23 22 22
1 1 1 3 4 4 4 4 5 6 8 7 4 5 4 2 0 2 9 10 7 8 7 5 8 11 9 7 5 5 8 11 11 12 7 1 3 4 6 8 9 10 12 13 13 13 13 13 13 13 13 13 12 12 12 12 13 16 18 19 18 20 21 20 19 18 18 20 21 21 20 18 18 18 18 17 16 17 18 19 20 21 22 22 21 22
2 1 1 1 2 3 4 3 4 6 6 3 2 4 4 1 5 7 10 11 11 12 11 7 9 11 9 9 8 9 12 13 12 12 9 4 5 4 4 7 8 8 10 11 12 13 14 13 13 13 13 12 11 12 13 13 15 17 18 19 20 22 22 20 19 18 19 20 20 19 19 19 18 16 14 14 16 17 19 19 19 20 20 20 21 22
4 2 2 3 3 2 2 1 2 6 4 3 5 2 3 3 8 13 13 15 16 15 13 10 10 10 9 10 12 13 14 13 12 12 10 8 5 3 4 7 7 8 9 10 12 14 14 13 12 13 13 12 11 13 14 14 16 18 18 20 23 22 21 20 19 19 20 20 20 19 19 19 18 16 15 17 17 17 18 18 18 18 19 19 20 21
4 4 3 3 3 3 2 3 3 3 3 5 2 4 6 8 11 13 13 14 16 15 13 11 11 12 10 11 13 13 13 12 12 11 9 7 4 3 4 6 7 9 10 12 14 14 13 12 12 12 12 12 12 14 15 16 17 18 19 22 23 21 20 20 19 19 20 20 20 19 19 19 18 18 19 20 17 16 16 16 16 17 18 18 18 19
4 5 4 4 4 4 5 7 7 5 4 5 6 10 14 16 16 14 12 13 13 13 12 10 12 15 13 11 11 11 11 11 11 10 8 6 4 4 5 6 7 10 11 12 14 13 12 12 11 11 11 13 14 16 17 17 18 19 20 22 22 20 19 20 19 20 21 21 20 20 19 19 19 21 22 20 16 15 15 14 14 16 18 18 18 18
2 2 2 2 3 5 6 7 8 9 8 6 8 12 15 17 17 14 13 12 12 12 12 11 13 14 13 11 10 9 10 10 10 10 8 6 5 5 5 6 8 9 11 12 12 12 11 10 9 10 12 14 16 17 18 18 18 19 21 22 20 19 20 20 20 21 21 21 21 20 19 19 20 22 23 19 16 15 14 13 13 15 17 18 18 17
2 1 2 2 2 3 4 7 11 14 13 11 11 13 13 14 14 12 10 10 11 13 12 12 12 12 10 10 9 9 11 10 9 9 8 6 5 5 4 5 7 9 10 11 11 10 9 8 8 10 12 15 18 19 19 18 18 19 20 20 19 19 19 20 21 22 22 22 21 20 19 20 21 23 21 18 16 15 14 12 13 14 15 16 17 18
1 1 1 3 3 2 7 11 15 17 17 13 11 11 11 12 14 13 10 10 11 11 11 10 10 9 8 9 8 9 10 10 8 8 8 6 5 5 4 5 7 9 10 11 10 8 7 7 9 11 13 16 19 19 19 19 19 19 19 19 19 19 19 20 21 22 22 22 21 20 20 20 21 22 19 17 16 16 15 14 13 14 15 15 16 18
1 1 2 3 4 5 8 11 13 17 19 18 17 17 15 15 16 17 15 13 11 10 10 9 9 7 7 8 8 8 9 10 8 7 7 6 5 5 5 7 9 10 10 9 8 6 6 8 10 12 14 17 19 20 19 19 19 19 19 19 19 18 19 20 21 21 22 22 21 21 21 20 21 20 17 16 16 16 15 15 15 14 15 16 15 16
1 2 1 3 6 7 10 13 13 13 15 17 20 23 21 19 19 18 16 13 11 10 9 9 10 10 8 7 7 6 8 9 8 7 7 6 5 6 8 9 10 10 9 8 6 6 7 10 12 14 16 18 19 19 19 20 20 19 19 19 18 18 19 20 20 21 22 22 21 21 20 20 20 18 16 16 17 16 16 17 16 14 15 16 16 15
3 3 0 3 7 10 12 15 12 9 12 16 19 22 21 18 15 14 12 11 10 9 8 8 9 10 10 9 8 6 7 8 8 7 6 6 7 9 11 11 10 9 8 6 6 7 9 12 14 15 17 18 19 19 19 20 20 20 19 18 17 17 18 19 20 20 21 21 21 20 20 19 18 16 15 16 16 16 17 18 18 17 15 15 15 15
Wind_Direction
55 67 51 82 32 326 314 300 129 122 113 118 113 117 147 355 321 277 310 3 120 88 53 95 143 196 215 237 245 255 274 259 257 254 250 254 255 260 264 268 275 268 275 300 318 329 347 358 6 12 13 17 22 24 21 19 18 18 16 15 13 11 7 4 3 4 7 9 9 11 13 14 16 15 15 16 16 16 15 15 16 17 17 17 16 16
54 78 48 242 219 303 345 333 117 88 80 92 113 115 115 153 299 281 273 352 99 116 143 164 181 228 222 235 243 236 243 245 237 233 241 246 251 259 257 267 271 266 282 296 307 322 340 349 359 7 9 11 12 14 14 12 13 14 14 13 11 9 6 2 360 360 4 9 8 8 8 7 10 12 13 13 12 12 12 12 13 13 15 16 16 16
49 77 248 256 232 354 22 51 77 75 79 70 85 99 68 270 297 288 274 346 39 103 180 183 205 246 228 235 246 232 228 236 234 226 236 242 250 262 249 257 268 274 291 290 297 316 331 342 351 357 3 6 4 6 8 8 9 11 11 10 9 7 3 360 357 354 357 3 3 2 2 1 2 5 9 11 10 9 10 10 9 10 11 12 14 15
76 292 229 157 127 79 41 39 62 61 64 67 86 101 280 273 53 265 275 346 10 70 153 179 203 247 228 240 250 236 227 242 247 236 241 244 242 252 252 254 262 266 283 288 293 308 319 330 336 341 349 354 356 1 5 6 6 8 9 7 5 3 1 356 353 350 349 352 354 353 353 354 356 357 359 3 6 7 7 7 6 6 7 8 10 12
91 264 250 80 81 97 89 66 83 81 45 267 158 137 202 241 212 227 265 330 334 36 114 160 249 274 206 223 244 232 222 243 253 244 247 248 241 249 262 262 256 253 264 276 285 297 305 313 319 326 336 341 350 358 1 3 4 5 5 3 0 359 359 354 351 351 346 344 346 344 344 347 349 350 351 353 357 359 0 2 2 1 1 3 5 8
81 297 40 69 53 93 135 99 81 147 94 303 225 149 168 209 219 240 269 332 19 360 199 139 360 310 217 223 238 218 211 235 240 241 243 246 247 247 253 258 255 253 252 251 259 273 286 296 304 314 324 330 340 351 354 357 360 1 359 357 356 356 358 357 356 358 351 344 343 341 341 342 341 341 343 345 346 348 350 353 355 356 356 357 360 3
66 6 55 100 90 81 106 65 322 166 84 360 215 112 110 162 194 242 236 118 83 266 263 80 85 273 279 249 239 209 210 235 236 240 241 236 242 239 237 248 249 253 253 248 256 262 273 285 292 300 312 320 329 339 345 351 355 356 354 352 352 353 357 359 360 1 357 352 350 348 344 342 340 335 336 340 340 340 341 342 345 348 350 351 354 357
117 50 56 85 97 82 87 62 266 128 100 285 26 66 58 163 184 213 146 109 162 209 308 24 87 228 279 270 248 192 209 243 247 244 243 231 232 234 233 240 238 243 246 243 257 264 270 278 283 289 299 310 319 329 338 347 351 351 348 345 347 350 351 353 354 355 357 359 359 358 355 351 348 342 338 339 339 337 338 338 339 341 343 345 347 350
143 99 80 89 86 45 124 187 238 113 105 265 13 50 332 177 167 173 110 90 360 63 306 316 52 68 274 271 45 119 219 254 251 242 240 230 226 227 229 236 238 243 243 240 244 257 266 273 280 286 292 301 311 317 330 344 347 344 342 340 342 344 345 347 348 350 354 357 358 358 358 354 351 347 343 340 338 338 340 339 339 340 339 340 341 342
148 129 150 114 95 275 198 210 231 98 33 282 65 70 38 62 78 87 89 92 38 41 250 270 18 62 276 273 90 109 236 249 248 242 237 229 224 223 224 230 237 243 245 244 245 252 263 271 279 286 288 293 300 301 321 337 340 337 335 334 337 340 341 343 345 348 350 352 353 354 353 350 347 344 342 340 340 342 344 344 343 344 342 339 339 337
317 349 130 116 129 240 193 195 126 118 250 316 60 58 40 46 39 53 64 73 56 344 251 238 25 77 299 278 215 194 220 213 216 232 233 227 223 222 222 223 230 237 238 242 248 256 267 275 281 284 283 287 288 285 311 330 333 329 327 328 331 333 335 337 341 345 347 348 348 347 347 345 343 342 341 341 342 344 346 346 345 347 346 344 343 338
352 18 42 254 261 153 103 172 143 259 280 29 59 54 59 8 4 28 355 36 75 278 255 213 293 97 216 262 235 223 233 209 196 213 217 216 219 221 220 219 223 228 234 235 244 259 268 277 282 281 281 283 276 274 303 326 328 321 320 322 325 327 329 331 337 341 342 343 342 340 341 340 339 339 338 338 340 342 343 343 342 344 344 344 343 342
3 135 291 297 258 122 102 166 311 348 4 38 47 55 65 360 5 17 328 5 183 248 232 188 270 253 229 253 251 244 244 228 216 217 212 208 212 220 220 219 222 223 230 232 230 251 262 269 275 276 278 277 266 270 299 321 324 316 315 318 320 324 326 327 333 337 337 337 335 334 334 335 335 334 332 332 333 336 338 337 337 338 338 337 338 339
336 298 308 354 261 103 97 115 291 328 13 25 55 84 82 66 33 318 286 325 275 267 251 207 300 292 271 273 248 238 243 234 225 225 220 213 211 218 219 218 225 230 230 232 231 244 256 263 268 270 272 269 259 268 293 313 319 311 308 311 313 317 322 325 329 332 333 331 328 327 327 328 329 328 327 326 326 329 331 331 331 331 331 330 330 333
104 290 301 80 291 21 73 121 156 145 73 360 164 126 117 138 135 242 239 248 281 292 291 298 299 215 236 271 230 227 259 266 239 231 225 229 228 223 227 228 231 237 236 233 239 244 251 261 265 266 267 262 255 265 285 302 311 306 298 300 304 309 316 321 325 328 330 328 323 319 320 321 323 322 322 321 321 324 324 324 324 324 325 324 323 325
162 250 264 307 319 57 61 231 120 108 88 287 152 95 69 164 146 157 188 189 236 320 292 254 230 214 229 265 254 250 283 265 241 236 226 239 241 223 232 241 237 240 239 233 237 245 251 257 260 261 261 255 251 263 277 290 304 301 290 289 294 302 311 317 323 326 328 327 319 313 313 316 319 319 318 317 317 318 319 317 317 318 318 316 316 316
160 270 275 352 7 57 125 236 86 92 180 56 66 103 199 168 117 105 217 353 67 10 280 244 254 284 313 287 281 25 282 263 243 237 228 235 239 223 232 240 239 239 237 232 231 235 245 251 255 258 257 251 250 263 272 283 299 296 283 282 288 296 305 312 319 323 325 324 315 306 306 311 316 318 318 316 315 315 314 310 310 312 313 311 310 309
154 287 289 95 67 300 200 101 46 17 116 106 175 186 148 79 74 99 113 358 42 280 271 266 264 292 330 293 314 345 272 268 256 240 236 242 240 233 239 239 238 240 236 232 232 234 241 247 253 256 255 248 251 265 273 280 293 290 276 276 285 293 300 308 315 319 321 321 311 301 303 308 313 316 316 315 314 312 309 305 306 308 308 308 306 303
119 304 298 62 176 279 346 74 8 351 63 106 175 148 101 95 271 90 116 350 349 281 281 287 286 269 213 235 277 257 233 243 250 239 233 240 234 232 241 242 241 242 236 231 229 231 237 244 251 253 251 247 253 268 274 277 287 283 270 270 279 287 295 304 310 314 318 317 307 299 304 309 311 314 314 313 311 309 304 303 306 307 307 307 303 300
98 124 278 311 244 301 351 82 224 281 59 59 49 38 51 133 171 182 150 162 184 235 270 305 314 275 221 209 221 230 223 220 236 238 230 233 231 229 234 239 241 235 227 228 223 221 234 243 250 251 248 248 260 273 273 273 281 275 264 267 276 284 293 300 305 309 312 310 300 296 302 307 309 311 311 310 308 304 302 304 307 308 308 305 298 298
65 128 236 307 340 305 270 212 196 181 152 109 76 360 328 80 123 212 235 140 138 165 200 283 298 272 243 186 204 231 230 217 222 235 238 233 230 231 231 233 237 231 222 224 220 221 238 246 250 250 249 253 265 273 270 270 275 269 260 265 274 283 293 298 302 306 306 301 293 293 299 304 308 310 309 307 304 301 302 306 307 307 306 301 296 301
118 148 189 272 291 214 236 258 211 194 174 153 171 190 178 143 118 112 285 270 122 157 185 170 264 275 268 177 204 232 229 224 223 226 238 239 228 230 234 232 231 228 220 219 219 225 238 245 247 246 249 256 265 268 267 269 271 263 258 264 274 281 290 296 301 303 301 294 288 291 298 302 306 308 306 303 300 301 304 305 306 306 303 298 299 303
139 111 125 245 238 220 258 288 281 213 152 133 168 169 144 138 127 139 218 247 172 175 191 127 237 275 269 175 198 228 220 229 229 217 232 242 233 229 234 236 231 225 224 221 223 232 238 243 243 244 250 256 262 266 268 269 266 259 259 265 272 279 288 295 298 299 295 287 286 293 298 301 304 305 303 301 301 302 304 305 305 304 300 298 300 302
108 88 100 273 295 323 311 321 346 20 84 115 222 152 144 163 144 153 178 181 180 202 186 116 245 269 274 183 210 241 239 251 245 224 233 240 239 236 232 236 230 221 230 230 230 240 242 243 242 243 249 255 260 265 266 266 262 257 258 264 270 278 288 293 295 293 288 286 289 295 298 299 302 302 300 300 301 302 303 304 304 301 298 299 300 301
201 128 111 336 328 334 341 347 340 334 59 201 231 175 164 126 103 112 143 119 250 220 180 159 243 260 268 71 235 249 247 259 249 224 230 237 242 240 227 232 232 225 233 236 235 241 240 240 241 243 248 253 259 263 263 262 258 253 256 262 269 278 287 291 290 287 285 287 292 295 297 298 299 299 298 299 300 302 303 303 301 299 299 299 300 300
171 171 136 136 273 279 291 296 281 250 200 210 213 193 192 152 140 159 134 125 236 225 167 170 238 259 269 276 264 252 227 248 256 240 231 241 243 242 234 231 231 227 231 234 234 236 236 239 241 244 250 254 259 262 261 258 254 252 256 261 268 279 286 287 286 283 285 289 292 294 295 297 297 297 297 298 299 301 301 301 300 299 300 302 301 298
100 184 187 183 210 229 246 250 210 140 160 193 212 207 200 187 170 143 109 181 212 177 182 230 240 261 278 280 279 276 259 248 256 253 247 248 243 240 238 236 233 228 229 232 233 235 239 241 243 247 253 258 262 264 262 258 252 251 255 261 271 280 284 284 283 282 284 289 292 292 293 294 295 296 298 299 300 301 300 299 299 301 303 303 300 297
97 270 235 205 226 241 255 261 224 143 223 197 201 219 204 195 180 168 201 216 166 104 254 254 248 253 268 272 276 280 275 265 261 255 249 251 247 237 232 234 234 230 230 231 229 234 239 239 242 248 253 259 263 264 262 256 251 251 257 265 274 280 281 282 281 279 284 288 290 291 291 291 293 296 299 300 300 300 299 297 300 305 305 302 299 299
123 249 235 198 244 259 269 274 260 244 247 202 214 237 216 193 189 201 223 222 163 199 251 261 265 263 264 269 272 273 276 281 281 273 257 254 257 250 238 235 234 232 232 234 232 232 236 236 237 242 248 254 257 259 257 252 248 253 260 267 275 279 281 282 278 277 284 288 288 289 289 290 293 297 301 302 301 297 294 298 305 306 304 301 300 295
154 238 220 176 271 270 263 272 271 242 252 233 240 245 225 204 206 214 231 230 207 232 253 263 270 272 271 270 270 274 281 288 289 283 271 262 262 259 246 236 236 237 234 232 233 231 230 232 233 239 246 251 253 254 251 247 248 255 262 269 275 279 283 280 274 277 285 287 286 286 287 290 294 299 303 302 297 292 295 303 308 306 303 301 295 287
200 246 168 94 304 277 263 305 337 185 220 254 263 259 239 214 221 229 239 239 227 240 253 259 267 272 269 267 271 279 286 286 279 273 267 260 256 255 251 241 236 242 242 238 237 233 230 231 234 240 245 249 252 251 247 247 253 259 265 270 276 282 284 276 271 279 286 284 284 284 287 293 297 301 302 297 290 292 300 305 307 305 301 294 287 292
173 242 6 66 337 278 313 24 332 287 250 256 264 265 253 224 218 227 232 226 214 228 248 261 267 262 263 271 282 279 273 271 267 262 260 258 248 240 247 249 242 240 243 243 239 233 232 233 235 239 244 249 252 249 247 251 258 263 268 274 282 285 280 271 273 285 286 283 283 284 289 295 299 299 295 288 289 298 303 305 306 301 291 285 293 304
153 157 144 89 281 275 316 360 292 314 317 278 260 253 247 235 222 229 242 231 208 210 236 248 245 252 264 287 292 278 274 272 267 259 252 256 254 238 238 248 249 241 237 239 240 238 236 236 239 242 245 248 250 249 253 260 264 269 275 282 286 283 272 271 284 289 285 283 282 286 293 296 297 293 285 284 295 303 305 305 302 292 284 293 306 310
132 124 157 161 210 271 297 335 313 306 297 282 272 163 200 220 211 225 255 253 209 189 219 242 252 266 277 277 270 271 274 272 271 270 256 248 257 257 247 244 247 248 243 238 237 237 238 242 246 247 246 247 249 254 261 267 270 276 283 287 283 274 270 282 290 287 283 282 284 289 294 294 292 288 282 288 301 305 305 302 293 285 291 306 311 310
141 127 162 172 168 264 309 6 328 286 262 252 287 269 208 200 190 219 267 271 236 203 230 252 263 268 269 268 267 265 266 271 279 284 273 254 242 251 257 253 246 246 248 244 239 235 235 238 240 240 241 244 250 258 264 270 276 281 284 281 273 269 279 288 287 283 281 282 287 292 293 291 290 286 284 293 302 304 302 296 286 290 304 310 310 307
146 142 156 160 173 274 330 56 258 282 297 303 302 306 101 115 93 18 284 280 257 207 223 245 255 260 265 267 265 263 269 285 293 280 260 251 240 233 243 250 245 241 242 238 233 230 230 232 230 230 236 242 251 260 267 274 280 281 278 272 268 275 285 286 282 280 280 283 288 292 292 292 289 286 288 294 300 300 296 287 287 301 310 310 308 306
137 141 156 196 201 213 245 238 260 305 312 309 308 333 72 144 159 129 278 286 277 208 208 236 251 258 262 262 263 270 302 327 300 279 241 230 235 229 228 238 241 242 239 232 232 233 231 229 226 226 235 242 250 260 270 278 281 276 269 269 274 281 285 283 279 278 279 285 289 292 293 292 289 288 290 293 297 296 288 283 294 308 312 309 306 303
133 164 167 183 226 124 158 277 304 311 297 300 318 261 250 212 174 135 302 295 290 253 218 229 247 257 261 264 267 286 34 332 289 285 246 219 229 227 226 235 239 239 235 226 224 223 219 219 220 224 235 245 252 263 274 279 276 270 267 273 280 283 282 278 274 275 279 286 291 294 294 292 291 290 289 291 295 291 283 288 302 309 310 308 303 300
70 35 117 160 257 108 140 242 249 248 272 296 315 244 239 200 177 105 322 294 292 285 244 229 244 257 260 263 261 152 94 278 280 288 269 220 224 223 222 233 233 229 230 225 219 218 217 219 222 225 234 245 257 270 277 274 267 267 271 277 282 282 277 272 271 274 281 288 294 294 293 293 292 290 289 291 291 285 284 296 307 309 309 307 303 300
56 22 93 186 240 208 159 230 253 241 257 269 233 218 213 188 147 7 306 290 301 318 284 230 246 259 255 256 248 168 215 255 274 292 291 204 211 224 217 218 212 209 218 221 222 227 227 220 218 221 230 244 262 274 275 266 263 268 273 279 281 276 272 271 274 278 285 292 294 292 292 293 292 290 291 289 285 284 290 301 307 308 308 307 305 304
187 238 160 200 247 222 186 234 269 263 262 264 238 197 172 174 116 297 281 287 322 325 298 248 254 266 258 248 235 215 240 251 265 287 300 169 205 235 217 216 213 209 216 221 224 228 224 217 221 231 242 255 268 272 267 262 265 270 276 279 276 271 273 278 279 282 289 293 292 291 291 293 294 294 292 288 286 290 296 302 306 308 308 308 307 305
184 202 186 167 238 219 187 221 277 285 282 266 165 157 152 230 291 281 281 297 312 308 297 273 261 267 263 254 248 248 261 268 273 285 294 273 242 234 212 218 219 216 221 222 222 224 220 221 231 243 254 266 271 268 266 265 268 273 277 275 271 274 282 284 282 286 292 292 290 289 290 294 295 294 289 289 293 295 296 300 306 308 308 309 307 304
178 177 218 195 188 163 97 82 297 292 279 138 114 104 150 215 281 292 298 301 300 298 298 285 270 268 263 261 263 264 270 278 282 285 289 283 263 228 209 217 220 223 224 220 224 227 223 226 237 247 259 272 274 271 269 269 270 273 273 272 274 282 288 286 284 289 293 291 288 287 289 293 293 289 291 296 296 291 292 299 305 308 310 309 307 304
187 177 230 237 188 147 152 199 216 249 224 173 183 285 252 237 265 285 292 294 295 296 295 289 284 280 270 263 270 276 279 285 288 290 295 294 278 237 223 220 218 226 229 229 234 234 227 231 244 255 266 274 275 273 272 271 272 272 271 274 281 288 289 285 287 291 291 290 288 287 290 292 288 288 296 300 295 287 290 298 303 307 310 309 306 302
206 183 205 226 206 207 235 244 250 263 243 204 226 262 268 270 276 279 279 282 286 288 290 292 291 291 290 286 284 285 288 291 296 300 302 296 273 245 235 232 228 230 234 238 239 235 229 236 250 260 268 275 277 276 275 275 274 272 273 280 288 290 289 287 288 289 290 289 287 287 290 289 285 289 297 298 291 286 290 295 300 305 308 309 306 299
254 164 154 195 252 271 268 257 265 278 279 262 250 255 263 272 279 282 281 279 281 285 289 292 293 297 304 307 303 297 297 301 306 304 300 293 280 260 241 239 239 237 239 241 238 232 232 241 254 261 267 276 282 281 278 278 277 275 280 287 290 290 290 288 286 287 289 288 286 287 289 287 286 293 297 293 286 287 289 288 291 298 304 307 305 300
306 105 161 232 280 313 301 291 295 296 293 291 287 281 278 280 284 288 285 279 282 289 292 297 302 308 312 314 312 306 302 304 305 299 296 294 282 269 255 251 252 248 247 248 243 237 235 241 253 262 269 278 285 287 284 282 281 282 287 290 290 290 290 287 284 285 287 285 286 288 286 284 288 293 294 287 284 288 288 282 284 292 299 302 303 300
311 126 229 263 263 254 269 282 295 298 296 296 294 291 295 300 302 305 303 293 292 297 301 306 314 319 320 319 317 309 302 301 299 294 294 293 286 278 270 267 268 266 265 262 252 241 240 247 260 269 275 281 288 291 288 284 286 290 292 292 291 291 289 284 284 285 285 285 285 284 282 284 288 291 288 282 283 288 287 283 284 289 294 300 302 299
86 191 253 294 298 274 276 293 308 311 311 313 314 313 316 320 317 317 318 315 315 319 322 324 326 325 317 311 309 305 300 297 296 296 295 295 294 290 284 281 281 280 278 270 256 245 252 266 274 279 280 285 292 294 290 289 292 295 296 295 294 292 287 284 285 285 285 285 283 281 282 285 287 286 281 278 283 289 287 284 287 291 295 302 305 299
61 257 275 346 331 309 305 314 321 319 313 312 315 316 320 323 322 323 326 332 338 343 340 333 325 319 313 306 302 297 293 296 302 304 299 297 299 298 298 298 295 290 284 272 258 261 274 281 285 285 285 290 296 296 293 293 296 299 300 299 297 294 289 286 286 285 284 284 282 281 283 286 286 282 277 278 284 288 287 285 286 289 293 300 303 300
201 215 82 346 309 295 298 304 308 306 297 300 308 313 317 323 328 330 335 340 341 340 337 328 321 319 318 316 313 302 289 295 307 312 306 306 308 307 307 308 304 297 290 278 272 281 289 290 291 290 291 296 300 299 298 298 300 302 304 303 302 298 293 289 286 283 282 282 281 282 284 284 282 278 275 280 285 286 284 286 288 291 294 300 305 306